WetterOnline ( https://www.wetteronline.de )

Wetter aktuell Gibraltar

Aktuelles Wetter: Gibraltar (5m)

6-stündlich | Neueste Meldungen
Ortszeit Temperatur Wetter
Di, 07.04. 14:00 17.8° C wolkig
Di, 07.04. 8:00 15.7° C wolkig
Di, 07.04. 2:00 15.9° C fast wolkenlos
Mo, 06.04. 20:00 16.9° C -
Mo, 06.04. 14:00 17.7° C bedeckt
Mo, 06.04. 8:00 15.8° C bedeckt
Mo, 06.04. 2:00 16.1° C bewölkt
So, 05.04. 20:00 16.4° C bedeckt
Ortszeit Temperatur Wetter
Di, 07.04. 15:00 18.9° C leicht bewölkt
Di, 07.04. 14:50 19° C leicht bewölkt
Di, 07.04. 14:00 17.8° C wolkig
Di, 07.04. 13:50 18° C leicht bewölkt
Di, 07.04. 13:00 18.1° C wolkig
Di, 07.04. 12:50 18° C leicht bewölkt
Di, 07.04. 12:00 17.8° C leicht bewölkt
Di, 07.04. 11:50 18° C leicht bewölkt
Di, 07.04. 11:00 17.1° C wolkig
Ortszeit Relative Feuchte Sichtweite
Di, 07.04. 14:00 75% 16 km
Di, 07.04. 8:00 85% 12 km
Di, 07.04. 2:00 86% 16 km
Mo, 06.04. 20:00 78% 16 km
Mo, 06.04. 14:00 75% 16 km
Mo, 06.04. 8:00 82% 15 km
Mo, 06.04. 2:00 86% 13 km
So, 05.04. 20:00 82% 13 km
Ortszeit Relative Feuchte Sichtweite
Di, 07.04. 15:00 70% 16 km
Di, 07.04. 14:50 68% >10 km
Di, 07.04. 14:00 75% 16 km
Di, 07.04. 13:50 73% >10 km
Di, 07.04. 13:00 74% 25 km
Di, 07.04. 12:50 73% >10 km
Di, 07.04. 12:00 75% 25 km
Di, 07.04. 11:50 73% >10 km
Di, 07.04. 11:00 77% 20 km
Ortszeit Niederschlagsmenge Niederschlagsart
Di, 07.04. 14:00 0.0 l/m2 in 6 Std. -
Di, 07.04. 8:00 0.0 l/m2 in 12 Std. -
Di, 07.04. 2:00 0.0 l/m2 in 6 Std. -
Mo, 06.04. 20:00 0.0 l/m2 in 12 Std. -
Mo, 06.04. 14:00 0.0 l/m2 in 6 Std. -
Mo, 06.04. 8:00 0.0 l/m2 in 12 Std. -
Mo, 06.04. 2:00 0.0 l/m2 in 6 Std. -
So, 05.04. 20:00 0.0 l/m2 in 12 Std. -
Ortszeit Niederschlagsmenge Niederschlagsart
Di, 07.04. 15:00 keine Meldung -
Di, 07.04. 14:50 keine Meldung -
Di, 07.04. 14:00 keine Meldung -
Di, 07.04. 13:50 keine Meldung -
Di, 07.04. 13:00 keine Meldung -
Di, 07.04. 12:50 keine Meldung -
Di, 07.04. 12:00 keine Meldung -
Di, 07.04. 11:50 keine Meldung -
Di, 07.04. 11:00 keine Meldung -
Ortszeit Stärke Spitze Richtung
km/h Bft. km/h Grad Sektor
Di, 07.04. 14:00 24 4 - 80° O
Di, 07.04. 8:00 22 4 - 90° O
Di, 07.04. 2:00 20 4 - 90° O
Mo, 06.04. 20:00 20 4 - 110° O
Mo, 06.04. 14:00 19 3 - 90° O
Mo, 06.04. 8:00 19 3 - 80° O
Mo, 06.04. 2:00 20 4 - 100° O
So, 05.04. 20:00 26 4 - 100° O
Ortszeit Stärke Spitze Richtung
km/h Bft. km/h Grad Sektor
Di, 07.04. 15:00 22 4 - 90° O
Di, 07.04. 14:50 22 4 - 90° O
Di, 07.04. 14:00 24 4 - 80° O
Di, 07.04. 13:50 24 4 - 80° O
Di, 07.04. 13:00 20 4 - 80° O
Di, 07.04. 12:50 20 4 - 80° O
Di, 07.04. 12:00 26 4 - 90° O
Di, 07.04. 11:50 26 4 - 90° O
Di, 07.04. 11:00 22 4 - 80° O
Ortszeit Untergrenze Bedeckung Gattung
total tief tief mittel hoch
Di, 07.04. 14:00 870 m 7/8 4/8 Cu - Ci
Di, 07.04. 8:00 390 m 6/8 3/8 Sc - Ci
Di, 07.04. 2:00 330 m - 1/8 - - -
Mo, 06.04. 20:00 - - - - - -
Mo, 06.04. 14:00 450 m 8/8 8/8 Sc - -
Mo, 06.04. 8:00 390 m 8/8 8/8 Sc - -
Mo, 06.04. 2:00 840 m - 7/8 - - -
So, 05.04. 20:00 900 m - 8/8 - - -
Ortszeit Bedeckungsgrad in Achtel und Wolkenuntergrenze
Di, 07.04. 15:00 2(900m) 7(6000m)
Di, 07.04. 14:50 1-2(900m) 5-7(6000m)
Di, 07.04. 14:00 4(870m) 6(6000m)
Di, 07.04. 13:50 3-4(870m) 5-7(6000m)
Di, 07.04. 13:00 1(390m) 4(900m)
Di, 07.04. 12:50 1-2(390m) 3-4(900m)
Di, 07.04. 12:00 1(390m) 4(7500m)
Di, 07.04. 11:50 1-2(390m) 3-4(7500m)
Di, 07.04. 11:00 1(390m) 5(840m)
Ortszeit Luftdruck NN (hPa) Tendenz (hPa in 3 Std.)
Di, 07.04. 14:00 1025 + 0,2
Di, 07.04. 8:00 1024 0,0
Di, 07.04. 2:00 1024 - 0,1
Mo, 06.04. 20:00 1022 - 0,5
Mo, 06.04. 14:00 1024 + 0,4
Mo, 06.04. 8:00 1021 + 0,7
Mo, 06.04. 2:00 1021 + 0,5
So, 05.04. 20:00 1019 + 0,2
Ortszeit Luftdruck NN (hPa) Tendenz (hPa in 3 Std.)
Di, 07.04. 15:00 1025 - 0,5
Di, 07.04. 14:50 1024 keine Meldung
Di, 07.04. 14:00 1025 + 0,2
Di, 07.04. 13:50 1025 keine Meldung
Di, 07.04. 13:00 1025 + 1,1
Di, 07.04. 12:50 1025 keine Meldung
Di, 07.04. 12:00 1025 + 1,2
Di, 07.04. 11:50 1025 keine Meldung
Di, 07.04. 11:00 1025 + 1,1
Ortszeit Schneehöhe (cm)
Di, 07.04. 14:00 -
Di, 07.04. 8:00 0
Di, 07.04. 2:00 -
Mo, 06.04. 20:00 -
Mo, 06.04. 14:00 -
Mo, 06.04. 8:00 0
Mo, 06.04. 2:00 -
So, 05.04. 20:00 -
Ortszeit Schneehöhe (cm)
Di, 07.04. 15:00 -
Di, 07.04. 14:50 -
Di, 07.04. 14:00 -
Di, 07.04. 13:50 -
Di, 07.04. 13:00 -
Di, 07.04. 12:50 -
Di, 07.04. 12:00 -
Di, 07.04. 11:50 -
Di, 07.04. 11:00 -
Link zu dieser Seite / Seite empfehlen

Das Wetter in ...